{"data":{"norad_id":66234,"epoch":"2026-09-20T22:21:58.049568Z","epoch_age_seconds":59394,"freshness":"FRESH","line1":"1 66234U 25245A   26263.93192187  .00014785  00000+0  48712-3 0  9997","line2":"2 66234  53.1595  95.2696 0001216 112.3371 247.7759 15.31710055 51179","mean_motion":15.31710055,"eccentricity":0.0001216,"inclination_deg":53.1595,"raan_deg":95.2696,"arg_perigee_deg":112.3371,"mean_anomaly_deg":247.7759,"bstar":0.00048712,"rev_number":5117,"period_min":94.012570806033,"perigee_km":469.87720215997,"apogee_km":471.54284175571,"semimajor_km":6848.8470219578,"source":"CELESTRAK","updated_at":"2026-09-21T09:00:35.845477Z"}}